Regional Weather Roundup
Issued by NWS

Home | Current Version | Previous Version | Graphics & Text | Print | Product List | Glossary On
Versions: 1 2 3 4 5 6 7 8 9 10 11 12 13 14 15 16 17 18 19 20 21 22 23 24 25 26 27 28 29 30 31 32 33 34 35 36 37 38 39 40 41 42 43 44 45 46 47 48 49 50
000
ASUS43 KMKX 220300
RWRWI

WISCONSIN REGIONAL WEATHER ROUNDUP
NATIONAL WEATHER SERVICE MILWAUKEE/SULLIVAN WI
900 PM CST TUE FEB 21 2017

NOTE: "FAIR" INDICATES FEW OR NO CLOUDS BELOW 12,000 FEET WITH NO
SIGNIFICANT WEATHER AND/OR OBSTRUCTIONS TO VISIBILITY.

WIZ001-002-006>008-014>016-023>028-220400-
NORTHWEST WISCONSIN

CITY           SKY/WX    TMP DP  RH WIND       PRES   REMARKS
SUPERIOR ARPT  MOCLDY    34  33  95 N5        29.68F WCI  30
ASHLAND        CLOUDY    42  33  70 NW6       29.68F
HAYWARD        PTCLDY    48  37  65 S10       29.68F
SIREN          MOCLDY    46  40  77 S7        29.69R
CUMBERLAND     CLOUDY    43  36  75 S7        29.70F
RICE LAKE      CLOUDY    48  39  69 S7        29.72F
CHETEK         CLOUDY    49  39  67 S5        29.72F
LADYSMITH      CLOUDY    48  36  61 SE5       29.74F
EAU CLAIRE     NOT AVBL
MENOMONIE      PTCLDY    51  40  65 S7        29.73S
NEW RICHMOND   PTCLDY    49  42  79 S9        29.70F
OSCEOLA        NOT AVBL
$$

WIZ003>005-009-010-017-018-220400-
NORTH CENTRAL WISCONSIN

CITY           SKY/WX    TMP DP  RH WIND       PRES   REMARKS
MANITOWISH WTR CLOUDY    45  36  70 S5        29.72S
ARBOR VITAE    CLOUDY    46  36  66 S6          N/A
WOODRUFF       CLOUDY    46  36  66 S6          N/A
RHINELANDER    PTCLDY    48  34  58 SW10      29.74F
EAGLE RIVER    PTCLDY    46  31  56 S3        29.73F
LAND O LAKES   CLOUDY    46  32  57 S5        29.74F
PHILLIPS       MOCLDY    46  35  64 S8        29.71F
TOMAHAWK       CLOUDY    41  35  77 CALM      29.76F
MEDFORD        CLOUDY    46  34  62 S8        29.75F
MERRILL        NOT AVBL
$$

WIZ029-030-035-036-043>047-220400-
CENTRAL WISCONSIN

CITY           SKY/WX    TMP DP  RH WIND       PRES   REMARKS
WAUSAU         PTCLDY    50  33  52 SW10      29.76S
MOSINEE        NOT AVBL
MARSHFIELD     CLOUDY    49  32  52 SW6       29.76F
STEVENS POINT  MOCLDY    49  31  50 SW6       29.79S
WAUPACA        MOCLDY    48  37  64 SE5       29.79F
WAUTOMA        CLOUDY    48  36  63 S5        29.81S
WISC RAPIDS    PTCLDY    50  33  52 SW3       29.79S
CAMP DOUGLAS   NOT AVBL
$$

WIZ011>013-019>022-031-037>040-048>050-220400-
NORTHEAST WISCONSIN

CITY           SKY/WX    TMP DP  RH WIND       PRES   REMARKS
ANTIGO         MOCLDY    42  34  73 S8        29.78S
SHAWANO        CLOUDY    52  40  63 S6        29.77F
OCONTO         CLOUDY    49  38  66 S5        29.78F
STURGEON BAY   CLOUDY    48  39  71 S8        29.81S
GREEN BAY      CLOUDY    50  40  68 S8        29.80S
MANITOWOC      NOT AVBL
APPLETON       MOCLDY    48  37  66 S8        29.79F
CLINTONVILLE   CLOUDY    46  37  71 W6        29.78F
OSHKOSH        PTCLDY    49  40  71 S14       29.80F
$$

WIZ032>034-041-042-053>061-220400-
SOUTHWEST WISCONSIN

CITY           SKY/WX    TMP DP  RH WIND       PRES   REMARKS
LA CROSSE      CLOUDY    49  38  65 SE7       29.78S
SPARTA         CLOUDY    51  38  60 CALM      29.79F
VIROQUA        CLOUDY    47  38  72 S9        29.79S
BOSCOBEL       CLEAR     45  38  76 SW5       29.81F
PRAIRIE DU CHI CLEAR     48  37  65 CALM      29.81F
PLATTEVILLE    CLEAR     49  40  70 S10       29.85S
$$

WIZ056-057-062-063-064-067-068-220400-
SOUTH CENTRAL WISCONSIN

CITY           SKY/WX    TMP DP  RH WIND       PRES   REMARKS
REEDSBURG      CLOUDY    51  37  60 CALM      29.81S
BARABOO/DELLS  CLOUDY    54  34  48 SW12      29.80F
LONE ROCK      NOT AVBL
MINERAL POINT  CLEAR     52  37  58 S6        29.84S
MADISON        MOCLDY    52  34  50 S8        29.83F
MIDDLETON      PTCLDY    51  37  57 S6        29.83S
WATERTOWN      CLOUDY    47  37  70 CALM      29.85F
MONROE         CLEAR     46  39  76 S10       29.85F
JANESVILLE     PTCLDY    52  37  58 S5        29.86S
$$

WIZ051-052-058>065-066-070>072-220400-
SOUTHEAST WISCONSIN

CITY           SKY/WX    TMP DP  RH WIND       PRES   REMARKS
MILWAUKEE      MOCLDY    47  44  90 CALM      29.87S FOG
WAUKESHA       CLEAR     52  36  54 S3        29.87S
MILWAUKEE/TIMM CLEAR     46  41  81 CALM      29.87S
RACINE         FOG       43  42  97 S3        29.89S VSB 1/2
KENOSHA        CLOUDY    45  44  97 CALM      29.87S FOG
FOND DU LAC    MOCLDY    50  38  63 S9        29.82F
SHEBOYGAN      MOCLDY    45  43  93 S7        29.84F FOG
WEST BEND      CLOUDY    45  41  87 CALM      29.85S
JUNEAU         PTCLDY    50  37  62 S9        29.84F
$$

LSZ147-162-220400-
LAKE SUPERIOR

STATION/POSITION TIME  TEMP    WIND        PRES    WAVE
                       AIR SEA DIR/SP/G            HT/PER
                 (UTC) (F)     (DEG/KT/KT) (MB)    (FT/S)
DEVILS ISLAND    0200   45     190/  4/  5 1005.4F
PORT WING        0240   36     150/  2/  4 1005.1S
SAXON HARBOR     0240   52     190/  6/  9 1004.7F
$$

LMZ867-665-643>646-220400-
LAKE MICHIGAN

STATION/POSITION TIME  TEMP    WIND        PRES    WAVE
                       AIR SEA DIR/SP/G            HT/PER
                 (UTC) (F)     (DEG/KT/KT) (MB)    (FT/S)
CHAMBERS ISLAND  0240   50     160/  7/ 13 1008.5F
NORTHPORT PIER   0240   41     140/  3/  6 1009.5S
SISTER BAY       0150   42     180/  8/ 10   N/A
ALGOMA LAKESHORE 0226          210/ 11/ 13   N/A
KEWAUNEE LAKESHO 0230   40     180/ 15/ 17 1009.4F
SHEBOYGAN LAKESH 0200   45     190/ 12/ 13 1011.1F
PORT WASHINGTON  0230   42     180/  6/  9 1012.5S
MILWAUKEE LAKESH 0230   39     160/  4/  4   N/A
KENOSHA   LAKESH 0200   40     170/  9/ 10 1011.9
$$

TC  - TEMPERATURE IN CELSIUS
VSB - VISIBILITY IN STATUTE MILES
WCI - WIND CHILL INDEX
HX  - HEAT INDEX





USA.gov is the U.S. government's official web portal to all federal, state and local government web resources and services.